Weather History for Medicine Lodge, KS

Change the Weather History Date:

Wednesday, March 26, 2014

  Actual Average Record
Temperature  
Mean Temperature 40 °F 50 °F  
Max Temperature 48 °F 62 °F 93 °F (1956)
Min Temperature 32 °F 37 °F 6 °F (1955)
Degree Days  
Heating Degree Days 25 15  
Month to date heating degree days 671 496  
Since 1 July heating degree days 4622 4025  
Cooling Degree Days 0 0  
Month to date cooling degree days 0 0  
Year to date cooling degree days 0 0  
Moisture  
Dew Point 35 °F    
Average Humidity 77    
Maximum Humidity 100    
Minimum Humidity 53    
Precipitation  
Precipitation 0.17 in 0.07 in 1.10 in (1995)
Month to date precipitation 0.49 1.89  
Year to date precipitation 1.44 3.64  
Snow  
Snow 0.00 in 0.00 in - ()
Month to date snowfall 0.0 0.1  
Since 1 July snowfall 23.0 8.5  
Snow Depth 0.00 in    
Sea Level Pressure  
Sea Level Pressure 29.87 in    
Wind  
Wind Speed 14 mph (SSE)    
Max Wind Speed 26 mph    
Max Gust Speed 37 mph    
T = Trace of Precipitation, MM = Missing Value Source: NWS Daily Summary

Daily Weather History Graph

Daily Weather History Graph

Search for Another Location

Airport:

Trip Planner

Search our weather history database for the weather conditions in past years. The results will help you decide how hot, cold, wet, or windy it might be!

Date:

Astronomy

Mar. 26, 2014 Rise Set
Actual Time 7:28 AM CDT 7:51 PM CDT
Civil Twilight 7:02 AM CDT 8:17 PM CDT
Nautical Twilight 6:32 AM CDT 8:48 PM CDT
Astronomical Twilight 6:00 AM CDT 9:19 PM CDT
Moon 4:32 AM CDT (3/26) 3:36 PM CDT (3/26)
Length of Visible Light 13h 15m
Length of Day
12h 22m
Waning Crescent, 21% of the Moon is Illuminated
Mar 26
Waning Crescent
Mar 30
New
Apr 7
First Quarter
Apr 15
Full
Apr 22
Last Quarter

Hourly Weather History & Observations

Time (CDT) Temp. Windchill Dew Point Humidity Pressure Visibility Wind Dir Wind Speed Gust Speed Precip Events Conditions
12:56 AM 35.1 °F 30.1 °F 24.1 °F 64% 30.12 in - SE 5.8 mph - N/A   Unknown
1:56 AM 34.0 °F 28.0 °F 23.0 °F 64% 30.11 in - SE 6.9 mph - N/A   Unknown
2:56 AM 32.0 °F 24.8 °F 23.0 °F 69% 30.09 in - SE 8.1 mph - N/A   Unknown
3:56 AM 36.0 °F 29.0 °F 24.1 °F 62% 30.04 in - SSE 9.2 mph - N/A   Unknown
4:56 AM 34.0 °F 27.2 °F 25.0 °F 70% 30.03 in - SSE 8.1 mph - N/A   Unknown
5:56 AM 35.1 °F 27.4 °F 25.0 °F 67% 29.99 in - SSE 10.4 mph 18.4 mph N/A   Unknown
6:56 AM 36.0 °F 27.5 °F 26.1 °F 67% 29.99 in - SSE 12.7 mph 21.9 mph N/A   Unknown
7:56 AM 36.0 °F 27.1 °F 27.0 °F 70% 30.00 in - SSE 13.8 mph 21.9 mph N/A   Unknown
8:56 AM 39.0 °F 32.8 °F 27.0 °F 62% 29.99 in - SSE 9.2 mph 20.7 mph N/A   Unknown
9:56 AM 44.1 °F 35.2 °F 28.0 °F 53% 29.96 in - South 23.0 mph 32.2 mph N/A   Unknown
10:56 AM 45.0 °F 36.4 °F 28.0 °F 52% 29.95 in - South 23.0 mph 31.1 mph N/A   Unknown
11:56 AM 44.1 °F 36.2 °F 36.0 °F 73% 29.94 in - South 18.4 mph 26.5 mph N/A   Unknown
12:56 PM 44.1 °F 36.8 °F 42.1 °F 93% 29.91 in - South 16.1 mph 26.5 mph 0.03 in   Unknown
1:56 PM 43.0 °F 35.4 °F 43.0 °F 100% 29.87 in - South 16.1 mph 26.5 mph 0.06 in   Unknown
2:56 PM 43.0 °F 34.2 °F 42.1 °F 97% 29.83 in - South 20.7 mph 31.1 mph 0.05 in   Unknown
3:56 PM 43.0 °F 35.7 °F 42.1 °F 97% 29.79 in - South 15.0 mph 24.2 mph 0.03 in   Unknown
4:56 PM 44.1 °F 37.4 °F 42.1 °F 93% 29.76 in - SSE 13.8 mph 23.0 mph N/A   Unknown
5:56 PM 45.0 °F 38.5 °F 43.0 °F 93% 29.71 in - SSE 13.8 mph 24.2 mph N/A   Unknown
6:56 PM 45.0 °F 38.5 °F 44.1 °F 97% 29.69 in - SSE 13.8 mph 24.2 mph N/A   Unknown
7:56 PM 45.0 °F 37.9 °F 44.1 °F 97% 29.67 in - SSE 16.1 mph 26.5 mph N/A   Unknown
8:56 PM 44.1 °F 37.1 °F 42.1 °F 93% 29.65 in - South 15.0 mph 32.2 mph N/A   Unknown
9:56 PM 44.1 °F 36.8 °F 42.1 °F 93% 29.64 in - SSE 16.1 mph 25.3 mph N/A   Unknown
10:56 PM 45.0 °F 38.2 °F 43.0 °F 93% 29.60 in - SSE 15.0 mph 23.0 mph N/A   Unknown
11:56 PM 46.9 °F - 44.1 °F 90% 29.56 in - SSE 11.5 mph 24.2 mph N/A   Unknown